{"data":{"norad_id":60201,"epoch":"2026-05-25T04:51:31.923648Z","epoch_age_seconds":60623,"freshness":"FRESH","line1":"1 60201U 24124U   26145.20245282 -.00000077  00000+0  95354-5 0  9990","line2":"2 60201  53.1609 326.8488 0000951  96.0332 264.0777 15.30196707106012","mean_motion":15.30196707,"eccentricity":9.51e-5,"inclination_deg":53.1609,"raan_deg":326.8488,"arg_perigee_deg":96.0332,"mean_anomaly_deg":264.0777,"bstar":9.5354e-6,"rev_number":10601,"period_min":94.105548222174,"perigee_km":474.57314702453,"apogee_km":475.87665645825,"semimajor_km":6853.3619017414,"source":"CELESTRAK","updated_at":"2026-05-25T13:38:19.197361Z"}}